User: anonymous   Login
Location: Fort Wayne
(41.1310°N, 85.1290°W)
Time: 09:14:28
(UTC-05:00)
Language:

CZ-2C R/B - Orbit

View from above orbital plane
View from above orbital plane
View from above satellite
View from above satellite

Ground track
Ground track

The orbit data is extracted from the following two-line orbital elements,

1 36089U 09061B   16038.57561057  .00000099  00000-0  35843-4 0  9991
2 36089  98.0577  56.4581 0083130 131.4552 339.0913 14.49541517329901
Epoch (UTC): 07 February 2016 13:48:52
Eccentricity: 0.0083130
inclination: 98.0577°
perigee height: 668 km
apogee height: 786 km
right ascension of ascending node: 56.4581°
argument of perigee: 131.4552°
revolutions per day: 14.49541517
mean anomaly at epoch: 339.0913°
orbit number at epoch: 32990

The dashed part of the orbit path shows where the satellite is in the earth's shadow,  

DLR